Weather History for Montgomery, NY

Change the Weather History Date:

Thursday, February 14, 2013

  Actual Average (KPOU) Record (KPOU)
Temperature  
Mean Temperature 32 °F 28 °F  
Max Temperature 42 °F 39 °F 56 °F (1984)
Min Temperature 21 °F 18 °F -14 °F (1979)
Degree Days  
Heating Degree Days 34 37  
Month to date heating degree days 529  
Since 1 July heating degree days 4081  
Cooling Degree Days 0 0  
Month to date cooling degree days 0  
Year to date cooling degree days 0  
Moisture  
Dew Point 23 °F    
Average Humidity 80    
Maximum Humidity 100    
Minimum Humidity 47    
Precipitation  
Precipitation 0.00 in 0.09 in 0.97 in (1950)
Month to date precipitation 1.30  
Year to date precipitation 4.38  
Sea Level Pressure  
Sea Level Pressure 29.87 in    
Wind  
Wind Speed 1 mph (SSW)    
Max Wind Speed 12 mph    
Max Gust Speed -    
Visibility 6 miles    
Events Fog    
T = Trace of Precipitation, MM = Missing Value Source: NWS Daily Summary

Daily Weather History Graph

Daily Weather History Graph

Search for Another Location

Airport:

Trip Planner

Search our weather history database for the weather conditions in past years. The results will help you decide how hot, cold, wet, or windy it might be!

Date:

Astronomy

Feb. 14, 2013 Rise Set
Actual Time 6:53 AM EST 5:29 PM EST
Civil Twilight 6:24 AM EST 5:58 PM EST
Nautical Twilight 5:52 AM EST 6:30 PM EST
Astronomical Twilight 5:20 AM EST 7:02 PM EST
Moon 8:49 AM EST (2/14) 10:34 PM EST (2/14)
Length of Visible Light 11h 33m
Length of Day
10h 36m
Waxing Crescent, 21% of the Moon is Illuminated
Feb 14
Waxing Crescent
Feb 17
First Quarter
Feb 25
Full
Mar 4
Last Quarter
Mar 11
New

Hourly Weather History & Observations

Time (EST) Temp. Windchill Dew Point Humidity Pressure Visibility Wind Dir Wind Speed Gust Speed Precip Events Conditions
12:54 AM 30.9 °F - 28.0 °F 89% 29.72 in 10.0 mi Calm Calm - N/A   Partly Cloudy
1:54 AM 32.0 °F - 28.0 °F 85% 29.74 in 10.0 mi Calm Calm - N/A   Overcast
2:54 AM 32.0 °F - 27.0 °F 82% 29.77 in 10.0 mi Calm Calm - N/A   Overcast
3:54 AM 28.9 °F - 27.0 °F 92% 29.78 in 5.0 mi Calm Calm - N/A   Mostly Cloudy
4:01 AM 28.4 °F - 26.6 °F 93% 29.78 in 1.8 mi Calm Calm - N/A   Scattered Clouds
4:14 AM 28.4 °F - 24.8 °F 86% 29.78 in 0.8 mi Calm Calm - N/A   Partly Cloudy
4:28 AM 26.6 °F - 24.8 °F 93% 29.78 in 0.2 mi Calm Calm - N/A Fog Light Freezing Fog
4:54 AM 26.1 °F - 24.1 °F 92% 29.81 in 0.2 mi Calm Calm - N/A Fog Light Freezing Fog
5:25 AM 24.8 °F - 21.2 °F 86% 29.81 in 1.0 mi Calm Calm - N/A   Clear
5:28 AM 24.8 °F - 21.2 °F 86% 29.81 in 2.0 mi Calm Calm - N/A   Clear
5:37 AM 24.8 °F - 21.2 °F 86% 29.81 in 5.0 mi Calm Calm - N/A   Clear
5:48 AM 21.2 °F - 19.4 °F 93% 29.81 in 1.2 mi Calm Calm - N/A   Clear
5:50 AM 21.2 °F - 19.4 °F 93% 29.81 in 0.8 mi Calm Calm - N/A   Mist
5:54 AM 21.9 °F - 19.0 °F 89% 29.83 in 0.5 mi Calm Calm - N/A Fog Light Freezing Fog
6:24 AM 24.8 °F - 21.2 °F 86% 29.82 in 1.5 mi Calm Calm - 0.00 in   Partly Cloudy
6:26 AM 24.8 °F - 21.2 °F 86% 29.83 in 3.0 mi Calm Calm - 0.00 in   Partly Cloudy
7:01 AM 21.2 °F - 19.4 °F 93% 29.85 in 0.8 mi Calm Calm - N/A   Clear
7:05 AM 21.2 °F - 19.4 °F 93% 29.85 in 1.5 mi Calm Calm - N/A   Clear
7:27 AM 21.2 °F - 19.4 °F 93% 29.86 in 0.5 mi Calm Calm - N/A Fog Light Freezing Fog
7:41 AM 23.0 °F - 21.2 °F 93% 29.87 in 1.2 mi Calm Calm - N/A   Clear
7:45 AM 23.0 °F - 21.2 °F 93% 29.88 in 3.0 mi Calm Calm - N/A   Clear
7:50 AM 21.2 °F - 21.2 °F 100% 29.88 in 1.8 mi Calm Calm - N/A   Clear
7:54 AM 21.9 °F - 21.0 °F 96% 29.90 in 1.5 mi Calm Calm - N/A   Clear
8:01 AM 24.8 °F - 21.2 °F 86% 29.89 in 3.0 mi Calm Calm - N/A   Clear
8:54 AM 28.0 °F 22.8 °F 26.1 °F 92% 29.92 in 6.0 mi SSW 4.6 mph - N/A   Clear
9:54 AM 35.1 °F - 24.1 °F 64% 29.93 in 10.0 mi Calm Calm - N/A   Clear
10:54 AM 37.9 °F - 21.9 °F 53% 29.94 in 10.0 mi Calm Calm - N/A   Clear
11:54 AM 39.9 °F - 21.9 °F 49% 29.92 in 10.0 mi Calm Calm - N/A   Clear
12:54 PM 39.9 °F 36.7 °F 23.0 °F 51% 29.91 in 10.0 mi SW 4.6 mph - N/A   Clear
1:54 PM 41.0 °F 35.2 °F 23.0 °F 49% 29.90 in 10.0 mi SW 9.2 mph - N/A   Clear
2:54 PM 41.0 °F 35.2 °F 24.1 °F 51% 29.91 in 10.0 mi SSW 9.2 mph - N/A   Clear
3:54 PM 42.1 °F 35.7 °F 23.0 °F 47% 29.92 in 10.0 mi SSW 11.5 mph - N/A   Clear
4:54 PM 39.9 °F 35.8 °F 24.1 °F 53% 29.92 in 10.0 mi SSW 5.8 mph - N/A   Clear
5:54 PM 37.0 °F - 25.0 °F 62% 29.94 in 10.0 mi Calm Calm - N/A   Clear
6:54 PM 32.0 °F - 24.1 °F 73% 29.95 in 10.0 mi Calm Calm - N/A   Clear
7:54 PM 30.9 °F - 24.1 °F 76% 29.96 in 10.0 mi Calm Calm - N/A   Partly Cloudy
8:54 PM 30.0 °F - 25.0 °F 82% 29.96 in 10.0 mi Calm Calm - N/A   Clear
9:54 PM 30.0 °F - 25.0 °F 82% 29.97 in 10.0 mi Calm Calm - N/A   Mostly Cloudy
10:54 PM 28.9 °F - 23.0 °F 78% 29.97 in 10.0 mi Calm Calm - N/A   Partly Cloudy
11:54 PM 27.0 °F - 21.9 °F 81% 29.97 in 10.0 mi Calm Calm - N/A   Partly Cloudy